Location: Hradec Kralove
(50.2170°N, 15.8330°E)
Time: 14:46:18
(UTC+01:00)

Explorer 7 - All Passes

Search period start: 27 January 2023 00:00
Search period end: 06 February 2023 00:00
Orbit: 480 x 661 km, 50.3° (Epoch: 26 January)

Date Brightness Start Highest point End Pass type
(mag) Time Alt. Az. Time Alt. Az. Time Alt. Az.
27 Jan - 13:55:53 10° S 13:59:11 21° SE 14:02:38 10° E daylight
27 Jan - 15:34:31 10° WSW 15:38:55 63° SSE 15:43:33 10° E daylight
27 Jan - 17:14:38 10° W 17:19:14 88° N 17:24:02 10° E visible
27 Jan - 18:54:58 10° W 18:59:36 65° SSW 19:04:22 10° ESE visible
27 Jan - 20:35:39 10° W 20:39:28 24° SW 20:43:18 10° SSE visible
28 Jan - 13:56:17 10° SSW 14:00:00 28° SE 14:03:54 10° E daylight
28 Jan - 15:35:28 10° WSW 15:39:54 74° SSE 15:44:35 10° E daylight
28 Jan - 17:15:41 10° W 17:20:17 89° N 17:25:05 10° E visible
28 Jan - 18:56:00 10° W 19:00:35 54° SSW 19:05:15 10° SE visible
28 Jan - 20:37:04 10° W 20:40:15 18° SW 20:43:28 10° S visible
29 Jan - 13:56:53 10° SW 14:00:51 37° SSE 14:05:03 10° E daylight
29 Jan - 15:36:27 10° WSW 15:40:54 83° SSE 15:45:36 10° E daylight
29 Jan - 17:16:43 10° W 17:21:19 86° S 17:26:06 10° ESE visible
29 Jan - 18:57:03 10° W 19:01:29 43° SSW 19:06:01 10° SE visible
29 Jan - 20:38:53 10° WSW 20:40:59 13° SW 20:43:07 10° SSW visible
30 Jan - 12:20:11 10° SSE 12:22:16 13° SE 12:24:26 10° ESE daylight
30 Jan - 13:57:35 10° SW 14:01:44 47° SSE 14:06:07 10° E daylight
30 Jan - 15:37:27 10° W 15:41:54 89° SSE 15:46:37 10° E daylight
30 Jan - 17:17:43 10° W 17:22:18 78° SSW 17:27:04 10° ESE visible
30 Jan - 18:58:08 10° W 19:02:21 33° SSW 19:06:38 10° SSE visible
31 Jan - 12:20:02 10° S 12:22:59 19° SE 12:26:04 10° E daylight
31 Jan - 13:58:24 10° WSW 14:02:38 59° SSE 14:07:07 10° E daylight
31 Jan - 15:38:26 10° W 15:42:54 88° N 15:47:37 10° E daylight
31 Jan - 17:18:42 10° W 17:23:15 68° SSW 17:27:59 10° ESE visible
31 Jan - 18:59:18 10° W 19:03:10 26° SW 19:07:05 10° SSE visible
01 Feb - 12:20:17 10° SSW 12:23:44 25° SE 12:27:21 10° E daylight
01 Feb - 13:59:16 10° WSW 14:03:33 70° SSE 14:08:06 10° E daylight
01 Feb - 15:39:26 10° W 15:43:53 88° N 15:48:35 10° E daylight
01 Feb - 17:19:41 10° W 17:24:11 56° SSW 17:28:50 10° SE visible
01 Feb - 19:00:36 10° W 19:03:55 19° SW 19:07:17 10° S visible
02 Feb - 12:20:45 10° SSW 12:24:30 33° SSE 12:28:29 10° E daylight
02 Feb - 14:00:11 10° WSW 14:04:29 81° SSE 14:09:03 10° E daylight
02 Feb - 15:40:24 10° W 15:44:51 88° S 15:49:33 10° E daylight
02 Feb - 17:20:41 10° W 17:25:03 45° SSW 17:29:34 10° SE visible
02 Feb - 19:02:13 10° WSW 19:04:36 14° SW 19:07:02 10° SSW visible
03 Feb - 10:44:34 10° SSE 10:45:56 11° SE 10:47:21 10° ESE daylight
03 Feb - 12:21:23 10° SW 12:25:19 43° SSE 12:29:30 10° E daylight
03 Feb - 14:01:07 10° W 14:05:25 88° S 14:10:01 10° E daylight
03 Feb - 15:41:21 10° W 15:45:48 80° S 15:50:28 10° ESE daylight
03 Feb - 17:21:42 10° W 17:25:52 35° SSW 17:30:10 10° SSE visible
04 Feb - 10:44:01 10° S 10:46:36 16° SE 10:49:15 10° E daylight
04 Feb - 12:22:06 10° SW 12:26:09 54° SSE 12:30:27 10° E daylight
04 Feb - 14:02:04 10° W 14:06:22 88° N 14:10:56 10° E daylight
04 Feb - 15:42:16 10° W 15:46:42 70° SSW 15:51:21 10° ESE daylight
04 Feb - 17:22:46 10° W 17:26:38 27° SW 17:30:36 10° SSE visible
05 Feb - 10:44:05 10° SSW 10:47:16 22° SE 10:50:34 10° E daylight
05 Feb - 12:22:53 10° WSW 12:27:00 66° SSE 12:31:23 10° E daylight
05 Feb - 14:02:59 10° W 14:07:17 88° N 14:11:52 10° E daylight
05 Feb - 15:43:12 10° W 15:47:34 59° SSW 15:52:09 10° ESE daylight
05 Feb - 17:23:58 10° W 17:27:21 20° SW 17:30:48 10° S visible
